Overview Statistics Trail Chart Weather Telemetry Raw packets
 

This is the latest recevied weather packets stored in our database for station/object EA1IDU-12. If no packets are shown the sender has not sent any weather packets the latest 10 day(s).

<< 2 3 4 5 6 7 8 >>
Time Temp. Humidity Pressure Rain* Wind** Luminosity Snow
1788532809 40° C 12% 1030.8 hPa - - - -
1788531909 39.44° C 12% 1030.8 hPa - - - -
1788531009 38.89° C 12% 1031.1 hPa - - - -
1788530109 40° C 12% 1031.1 hPa - - - -
1788529208 40° C 12% 1031.2 hPa - - - -
1788528308 38.33° C 14% 1031.4 hPa - - - -
1788527408 37.22° C 14% 1031.5 hPa - - - -
1788526508 38.33° C 14% 1031.7 hPa - - - -
1788525608 38.89° C 13% 1031.7 hPa - - - -
1788524708 38.33° C 14% 1031.8 hPa - - - -
1788523807 38.89° C 15% 1031.8 hPa - - - -
1788522907 38.33° C 15% 1032 hPa - - - -
1788522007 37.78° C 16% 1032 hPa - - - -
1788521107 37.78° C 16% 1032 hPa - - - -
1788520207 36.67° C 17% 1032.2 hPa - - - -
1788519307 36.11° C 17% 1032.5 hPa - - - -
1788518406 35.56° C 17% 1032.5 hPa - - - -
1788517506 35° C 18% 1032.6 hPa - - - -
1788516606 33.89° C 18% 1032.8 hPa - - - -
1788515706 33.89° C 19% 1032.8 hPa - - - -
1788514805 33.33° C 19% 1032.9 hPa - - - -
1788513905 33.33° C 20% 1032.7 hPa - - - -
1788513005 32.78° C 21% 1032.5 hPa - - - -
1788512105 31.67° C 23% 1032.2 hPa - - - -
1788511205 31.11° C 24% 1032.1 hPa - - - -

* Rain since midnight (hover to see other rain measurements)
** Current wind speed in m/s (hover to see current wind gust speed)